Bay City, TX

9:17 PM CST on February 19, 2017 (GMT -0600)
Bay City

Weather History for KBYY - November, 2011

Change the Weather History Date:

Friday, November 11, 2011

  Actual Average (KLBX) Record (KLBX)
Temperature  
Mean Temperature 52 °F -  
Max Temperature 69 °F 70 °F 84 °F (2003)
Min Temperature 35 °F 54 °F 34 °F (2011)
Degree Days  
Heating Degree Days 13    
Growing Degree Days 2 (Base 50)    
Moisture  
Dew Point 36 °F    
Average Humidity 60    
Maximum Humidity 93    
Minimum Humidity 25    
Precipitation  
Precipitation 0.00 in - - ()
Sea Level Pressure  
Sea Level Pressure 30.27 in    
Wind  
Wind Speed 2 mph (SSE)    
Max Wind Speed 12 mph    
Max Gust Speed 17 mph    
Visibility 10 miles    
Events      
Averages and records for this station are not official NWS values.
T = Trace of Precipitation, MM = Missing Value Source: NWS Daily Summary

Daily Weather History Graph

Daily Weather History Graph

Search for Another Location

Airport or City:

Trip Planner

Search our weather history database for the weather conditions in past years. The results will help you decide how hot, cold, wet, or windy it might be!

Date:

Astronomy

Nov. 11, 2011 Rise Set
Actual Time 6:43 AM CST 5:31 PM CST
Civil Twilight 6:18 AM CST 5:56 PM CST
Nautical Twilight 5:50 AM CST 6:24 PM CST
Astronomical Twilight 5:22 AM CST 6:52 PM CST
Moon 6:08 PM CST (11/11) 7:26 AM CST (11/11)
Length of Visible Light 11h 37m
Length of Day
10h 47m
Full, 99% of the Moon is Illuminated
Nov 11
Full
Nov 18
Last Quarter
Nov 25
New
Dec 2
First Quarter
Dec 10
Full

Hourly Weather History & Observations

Time (CST) Temp. Dew Point Humidity Pressure Visibility Wind Dir Wind Speed Gust Speed Precip Events Conditions
12:15 AM 40.5 °F 34.2 °F 78% 30.33 in 10.0 mi Calm Calm - N/A   Unknown
12:35 AM 40.3 °F 34.5 °F 80% 30.33 in 10.0 mi Calm Calm - N/A   Unknown
12:55 AM 38.7 °F 34.3 °F 84% 30.32 in 10.0 mi Calm Calm - N/A   Unknown
1:15 AM 39.9 °F 34.3 °F 80% 30.32 in 10.0 mi Calm Calm - N/A   Unknown
1:35 AM 40.6 °F 34.0 °F 77% 30.32 in 10.0 mi Calm Calm - N/A   Unknown
1:55 AM 37.4 °F 33.8 °F 87% 30.31 in 10.0 mi Calm Calm - N/A   Unknown
2:15 AM 38.8 °F 34.3 °F 84% 30.31 in 10.0 mi Calm Calm - N/A   Unknown
2:35 AM 38.5 °F 34.2 °F 84% 30.31 in 10.0 mi Calm Calm - N/A   Unknown
2:55 AM 38.1 °F 34.3 °F 86% 30.30 in 10.0 mi Calm Calm - N/A   Unknown
3:15 AM 38.3 °F 34.0 °F 84% 30.29 in 10.0 mi Calm Calm - N/A   Unknown
3:35 AM 38.1 °F 33.6 °F 84% 30.29 in 10.0 mi Calm Calm - N/A   Unknown
3:55 AM 36.9 °F 33.1 °F 86% 30.29 in 10.0 mi Calm Calm - N/A   Unknown
4:15 AM 36.5 °F 33.4 °F 89% 30.29 in 10.0 mi Calm Calm - N/A   Unknown
4:35 AM 36.5 °F 33.8 °F 90% 30.28 in 10.0 mi Calm Calm - N/A   Unknown
4:55 AM 36.5 °F 33.8 °F 90% 30.28 in 10.0 mi Calm Calm - N/A   Unknown
5:15 AM 36.1 °F 33.4 °F 90% 30.29 in 10.0 mi Calm Calm - N/A   Unknown
5:35 AM 36.3 °F 33.8 °F 91% 30.29 in 10.0 mi Calm Calm - N/A   Unknown
5:55 AM 36.1 °F 33.8 °F 91% 30.29 in 10.0 mi Calm Calm - N/A   Unknown
6:15 AM 35.6 °F 33.8 °F 93% 30.30 in 10.0 mi Calm Calm - N/A   Unknown
6:35 AM 36.5 °F 34.0 °F 91% 30.30 in 10.0 mi Calm Calm - N/A   Unknown
6:55 AM 36.5 °F 34.3 °F 92% 30.30 in 10.0 mi Calm Calm - N/A   Unknown
7:15 AM 37.2 °F 35.2 °F 93% 30.31 in 10.0 mi Calm Calm - N/A   Unknown
7:35 AM 39.4 °F 37.6 °F 93% 30.31 in 10.0 mi Calm Calm - N/A   Unknown
7:55 AM 43.2 °F 40.1 °F 89% 30.32 in 10.0 mi Calm Calm - N/A   Unknown
8:15 AM 48.0 °F 42.6 °F 82% 30.32 in 10.0 mi Calm Calm - N/A   Unknown
8:35 AM 53.8 °F 42.3 °F 65% 30.32 in 10.0 mi Calm Calm - N/A   Unknown
8:55 AM 58.6 °F 38.8 °F 48% 30.32 in 10.0 mi SE 3.5 mph - N/A   Unknown
9:15 AM 62.1 °F 36.5 °F 39% 30.31 in 10.0 mi ESE 5.8 mph - N/A   Unknown
9:35 AM 64.2 °F 33.8 °F 32% 30.31 in 10.0 mi SSE 8.1 mph - N/A   Unknown
9:55 AM 65.1 °F 30.0 °F 27% 30.31 in 10.0 mi South 5.8 mph - N/A   Unknown
10:15 AM 66.0 °F 29.5 °F 25% 30.31 in 10.0 mi ESE 4.6 mph - N/A   Unknown
10:35 AM 66.4 °F 29.8 °F 25% 30.31 in 10.0 mi South 4.6 mph - N/A   Unknown
10:55 AM 67.1 °F 30.6 °F 26% 30.30 in 10.0 mi South 4.6 mph - N/A   Unknown
11:15 AM 67.5 °F 31.6 °F 26% 30.29 in 10.0 mi South 4.6 mph - N/A   Unknown
11:35 AM 68.0 °F 32.9 °F 27% 30.28 in 10.0 mi SE 8.1 mph - N/A   Unknown
11:55 AM 68.7 °F 33.1 °F 27% 30.27 in 10.0 mi SSE 6.9 mph - N/A   Unknown
12:15 PM 68.9 °F 33.3 °F 27% 30.26 in 10.0 mi SSE 6.9 mph 17.3 mph N/A   Unknown
12:35 PM 69.1 °F 33.4 °F 27% 30.25 in 10.0 mi SSE 10.4 mph - N/A   Unknown
12:55 PM 69.1 °F 33.3 °F 27% 30.23 in 10.0 mi SSE 8.1 mph - N/A   Unknown
1:15 PM 69.4 °F 32.9 °F 26% 30.22 in 10.0 mi South 10.4 mph - N/A   Unknown
1:35 PM 69.3 °F 33.3 °F 26% 30.21 in 10.0 mi SSW 9.2 mph - N/A   Unknown
1:55 PM 69.4 °F 35.4 °F 29% 30.21 in 10.0 mi South 10.4 mph 16.1 mph N/A   Unknown
2:15 PM 69.3 °F 36.9 °F 30% 30.20 in 10.0 mi South 10.4 mph 16.1 mph N/A   Unknown
2:35 PM 69.4 °F 38.7 °F 32% 30.20 in 10.0 mi South 9.2 mph - N/A   Unknown
2:55 PM 69.3 °F 39.9 °F 34% 30.20 in 10.0 mi SSE 10.4 mph 17.3 mph N/A   Unknown
3:15 PM 69.1 °F 40.8 °F 36% 30.20 in 10.0 mi SSE 11.5 mph - N/A   Unknown
3:35 PM 68.7 °F 41.5 °F 37% 30.19 in 10.0 mi South 9.2 mph 17.3 mph N/A   Unknown
3:55 PM 68.4 °F 42.6 °F 39% 30.18 in 10.0 mi SSE 9.2 mph - N/A   Unknown
4:15 PM 68.0 °F 42.8 °F 40% 30.17 in 10.0 mi SSE 9.2 mph - N/A   Unknown
4:35 PM 67.3 °F 45.0 °F 45% 30.17 in 10.0 mi SSE 9.2 mph - N/A   Unknown
4:55 PM 65.8 °F 46.0 °F 49% 30.17 in 10.0 mi SSE 8.1 mph - N/A   Unknown
5:15 PM 62.6 °F 46.4 °F 55% 30.17 in 10.0 mi SSE 3.5 mph - N/A   Unknown
5:35 PM 62.6 °F 47.5 °F 58% 30.16 in 10.0 mi SSE 4.6 mph - N/A   Unknown
5:55 PM 61.2 °F 47.8 °F 62% 30.16 in 10.0 mi SE 3.5 mph - N/A   Unknown
6:15 PM 60.1 °F 47.8 °F 64% 30.16 in 10.0 mi ESE 4.6 mph - N/A   Unknown
6:35 PM 56.7 °F 47.5 °F 71% 30.16 in 10.0 mi Calm Calm - N/A   Unknown
6:55 PM 57.2 °F 48.0 °F 71% 30.16 in 10.0 mi Calm Calm - N/A   Unknown
7:15 PM 55.0 °F 47.7 °F 76% 30.16 in 10.0 mi ESE 3.5 mph - N/A   Unknown
7:35 PM 53.4 °F 47.8 °F 81% 30.16 in 10.0 mi ESE 3.5 mph - N/A   Unknown
7:55 PM 53.4 °F 47.8 °F 81% 30.15 in 10.0 mi SE 3.5 mph - N/A   Unknown
8:15 PM 55.8 °F 48.4 °F 76% 30.16 in 10.0 mi SSE 3.5 mph - N/A   Unknown
8:35 PM 56.3 °F 48.6 °F 75% 30.15 in 10.0 mi SE 4.6 mph - N/A   Unknown
8:55 PM 56.1 °F 48.9 °F 77% 30.16 in 10.0 mi SSE 3.5 mph - N/A   Unknown
9:15 PM 56.1 °F 48.9 °F 77% 30.16 in 10.0 mi Calm Calm - N/A   Unknown
9:35 PM 54.0 °F 48.6 °F 82% 30.16 in 10.0 mi Calm Calm - N/A   Unknown
9:55 PM 52.9 °F 48.2 °F 84% 30.16 in 10.0 mi Calm Calm - N/A   Unknown
10:15 PM 54.3 °F 48.9 °F 82% 30.15 in 10.0 mi Calm Calm - N/A   Unknown
10:35 PM 51.1 °F 47.1 °F 86% 30.14 in 10.0 mi Calm Calm - N/A   Unknown
10:55 PM 49.6 °F 46.9 °F 90% 30.13 in 10.0 mi SE 5.8 mph - N/A   Unknown
11:15 PM 54.5 °F 50.4 °F 86% 30.14 in 10.0 mi SSE 5.8 mph - N/A   Unknown
11:35 PM 55.2 °F 49.8 °F 82% 30.14 in 10.0 mi South 3.5 mph - N/A   Unknown
11:55 PM 54.0 °F 50.0 °F 86% 30.12 in 10.0 mi Calm Calm - N/A   Unknown